星链-36462(STARLINK-36462)

导读

STARLINK-36462是美国SpaceX星链星座的卫星,于2026年1月4日发射入轨。星链项目旨在构建全球卫星互联网通信网络,为全球偏远地区、海洋空域等场景提供高速低延迟的宽带服务,该卫星加入星座后进一步拓展了星链网络的覆盖范围与服务能力。

Basic Information
目录编号:
67321
目录名称:
STARLINK-36462
国际标识:
2026-002S
轨道中心:
EARTH
卫星名称:
星链-36462
卫星全名:
星链-36462(STARLINK-36462)
卫星状态:
在轨 (已飞行160 天)
发射日期:
2026-01-04 UTC
国别 :
美国 (US)
星等 :
--
Orbit Information
数据来源 国际轨道数据 AOE轨道数据
星历时间 2026-06-11T01:15:32+0800
2天前
查看轨道信息
2026-06-07T08:00:00+0800
6天前
查看轨道信息
半长轴 6861.104km 6861.242km
偏心率 0.0003673 0.0001159
轨道倾角 43.007° 43.002°
近地点辐角 270.227° 344.281°
升交点赤经 160.141° 181.148°
平近点角 89.816° 59.279°
近地点 480.446km 482.309km
远地点 485.488km 483.901km
周期 94.265分钟 94.268分钟
每日圈数 15.276075 15.275616
Detailed Information
固有亮度:
5
最大亮度:
2.5
卫星平台:
Starlink V1.0
覆盖范围:
全球
运营商:
太空探索技术公司
运营商所在国:
美国
制造商(研发单位):
太空探索技术公司
制造商所在国:
美国
使用方式:
暂无
Satellite Introduction
Starlink 计划是 SpaceX 推出的全球卫星互联网项目,通过发射低轨道卫星,为全球尤其是偏远地区提供高速、低延迟的互联网服务。自 2019 年起,Starlink 已部署数千颗卫星,旨在缩小全球数字鸿沟,推动互联网普及。该项目还为军事、航空等行业提供通信支持,带来广泛经济效益。
2D Orbit Map
3D Orbit Map
Orbit Altitude Analysis Chart
Orbit Inclination Analysis Chart
Orbit Comprehensive Analysis Chart
View Comprehensive Chart